Weather History for KMTH - May, 2014

Change the Weather History Date:

Monday, May 5, 2014

  Actual Average Record
Temperature  
Mean Temperature 80 °F 80 °F  
Max Temperature 86 °F 85 °F 89 °F (1998)
Min Temperature 74 °F 74 °F 69 °F (2006)
Degree Days  
Heating Degree Days 0 0  
Month to date heating degree days 0 0  
Since 1 July heating degree days 35 81  
Cooling Degree Days 15 14  
Month to date cooling degree days 87 70  
Year to date cooling degree days 1346 1106  
Growing Degree Days 28 (Base 50)    
Moisture  
Dew Point 63 °F    
Average Humidity 57    
Maximum Humidity 67    
Minimum Humidity 46    
Precipitation  
Precipitation 0.00 in 0.09 in 0.17 in (2005)
Month to date precipitation 0.14 0.46  
Year to date precipitation 5.65 9.05  
Snow  
Snow 0.00 in - - ()
Month to date snowfall 0.0  
Since 1 July snowfall 0.0  
Snow Depth 0.00 in    
Sea Level Pressure  
Sea Level Pressure 30.02 in    
Wind  
Wind Speed 9 mph (ENE)    
Max Wind Speed 15 mph    
Max Gust Speed 20 mph    
Visibility 10 miles    
Events      
T = Trace of Precipitation, MM = Missing Value Source: NWS Daily Summary

Daily Weather History Graph

Daily Weather History Graph

Search for Another Location

Airport or City:

Trip Planner

Search our weather history database for the weather conditions in past years. The results will help you decide how hot, cold, wet, or windy it might be!

Date:

Astronomy

May. 05, 2014 Rise Set
Actual Time 6:46 AM EDT 7:55 PM EDT
Civil Twilight 6:21 AM EDT 8:20 PM EDT
Nautical Twilight 5:53 AM EDT 8:48 PM EDT
Astronomical Twilight 5:23 AM EDT 9:18 PM EDT
Moon 12:02 PM EDT (5/5) 12:39 AM EDT (5/5)
Length of Visible Light 13h 58m
Length of Day
13h 09m
Waxing Crescent, 36% of the Moon is Illuminated
May 5
Waxing Crescent
May 6
First Quarter
May 14
Full
May 21
Last Quarter
May 28
New

Hourly Weather History & Observations

Time (EDT) Temp. Heat Index Dew Point Humidity Pressure Visibility Wind Dir Wind Speed Gust Speed Precip Events Conditions
12:53 AM 77.0 °F - 63.0 °F 62% 30.06 in 10.0 mi East 5.8 mph - N/A   Scattered Clouds
2:53 AM 75.9 °F - 63.0 °F 64% 30.03 in 10.0 mi NNE 8.1 mph - N/A   Clear
3:53 AM 75.9 °F - 59.0 °F 56% 30.02 in 10.0 mi NNE 8.1 mph - N/A   Clear
4:53 AM 75.0 °F - 57.0 °F 53% 30.03 in 10.0 mi NNE 10.4 mph - N/A   Clear
5:53 AM 75.0 °F - 54.0 °F 48% 30.02 in 10.0 mi NNE 9.2 mph - N/A   Clear
6:53 AM 73.9 °F - 61.0 °F 64% 30.04 in 10.0 mi NNE 10.4 mph - N/A   Clear
7:53 AM 75.9 °F - 63.0 °F 64% 30.05 in 10.0 mi NE 11.5 mph - N/A   Clear
8:53 AM 78.1 °F - 66.0 °F 66% 30.05 in 10.0 mi NE 12.7 mph - N/A   Clear
9:53 AM 79.0 °F - 64.9 °F 62% 30.06 in 10.0 mi NE 11.5 mph - N/A   Clear
10:53 AM 80.1 °F 81.9 °F 64.9 °F 60% 30.06 in 10.0 mi NE 11.5 mph - N/A   Clear
11:53 AM 81.0 °F 82.7 °F 64.9 °F 58% 30.05 in 10.0 mi ENE 12.7 mph - N/A   Scattered Clouds
12:53 PM 84.0 °F 86.3 °F 66.0 °F 55% 30.04 in 10.0 mi East 6.9 mph - N/A   Scattered Clouds
2:53 PM 84.9 °F 86.1 °F 64.0 °F 49% 30.01 in 10.0 mi ESE 9.2 mph 17.3 mph N/A   Clear
3:53 PM 84.0 °F 85.4 °F 64.0 °F 51% 29.99 in 10.0 mi East 10.4 mph 17.3 mph N/A   Clear
4:53 PM 84.0 °F 85.4 °F 64.0 °F 51% 29.98 in 10.0 mi Variable 6.9 mph - N/A   Clear
5:53 PM 82.0 °F 83.8 °F 64.9 °F 56% 29.97 in 10.0 mi East 11.5 mph 16.1 mph N/A   Clear
6:53 PM 81.0 °F 82.5 °F 64.0 °F 56% 29.98 in 10.0 mi East 9.2 mph 16.1 mph N/A   Clear
7:53 PM 78.1 °F - 64.0 °F 62% 29.98 in 10.0 mi East 9.2 mph - N/A   Clear
8:53 PM 78.1 °F - 64.9 °F 64% 29.99 in 10.0 mi East 6.9 mph - N/A   Clear
9:53 PM 78.1 °F - 64.0 °F 62% 30.01 in 10.0 mi East 8.1 mph - N/A   Clear
10:53 PM 77.0 °F - 64.9 °F 66% 30.01 in 10.0 mi East 10.4 mph - N/A   Clear